[[{"header":{"parameterUnit":"m.s-1","parameterCategory":1,"la1":30.2991,"la2":30.254,"lo1":-89.0895,"lo2":-89.0444,"dx":0.0017,"dy":0.0017,"nx":28,"ny":28,"refTime":"2023-01-02T15:00:00:Z","depth":0,"parameterNumber":2,"parameterNumberName":"U-component_of_WINDS"},"data":[0,0,0,0,0,0,0,0,0,0,0,0,0,0,0,0,0,0,0,0,0,0,0,0,0,0,0,0,0,0,0,0,0,0,0,0,0,0,0,0,0,0,0,0,0,0,0,0,0,0,0,0,0,0,0,0,0,0,4.1469,4.147,0,4.1598,4.1599,4.1601,4.1589,4.1587,4.1585,4.1583,4.1715,4.172,4.1725,0,0,0,0,0,0,0,0,0,0,0,0,0,4.1216,4.1221,4.1469,4.147,4.1472,4.1597,4.1599,4.1601,4.1589,4.1587,4.1584,4.1582,4.1713,4.1719,4.1726,0,0,0,0,0,0,0,0,0,0,0,0,0,4.1333,4.1222,4.1468,4.1481,4.1484,4.1597,4.1599,4.1601,4.159,4.1587,4.1584,4.1581,4.1711,4.1719,4.1727,4.1836,0,0,4.1751,4.1755,0,0,0,0,0,0,0,0,4.1327,4.1343,4.1478,4.148,4.1483,4.1574,4.1558,4.168,4.159,4.1549,4.1583,4.158,4.167,4.1682,4.1712,4.1842,4.1848,4.1752,4.1757,4.176,4.1763,0,0,0,0,0,0,0,4.1319,4.1337,4.152,4.148,4.1483,4.1482,4.1495,4.1581,4.1625,4.1553,4.1552,4.1568,4.1671,4.1705,4.1715,4.185,4.1752,4.1759,4.1764,4.1767,4.2082,4.2086,0,0,0,0,0,0,4.1307,4.133,4.1516,4.1524,4.1396,4.1489,4.1504,4.1548,4.1624,4.1633,4.157,4.1567,4.1692,4.1706,4.172,4.1858,4.176,4.1768,4.1772,4.2079,4.2083,4.2087,0,0,0,0,0,0,4.1302,4.1324,4.151,4.1427,4.1451,4.1496,4.1546,4.1552,4.1585,4.1637,4.1645,4.1596,4.1691,4.1709,4.1809,4.1862,4.1771,4.1779,4.2075,4.208,4.2085,4.2131,0,0,0,0,0,0,4.1295,4.1322,4.1363,4.1428,4.1455,4.1596,4.1549,4.1557,4.1599,4.1596,4.1663,4.1672,4.169,4.1797,4.1817,4.1871,4.1785,4.207,4.2077,4.2084,4.2125,4.2137,4.2147,0,0,0,0,0,4.1286,4.1369,4.1365,4.1387,4.1507,4.1599,4.1614,4.1633,4.1603,4.1646,4.168,4.1669,4.1852,4.1807,4.1829,4.1887,4.2067,4.2075,4.2083,4.212,4.2135,4.2147,0,0,0,0,0,0,4.1307,4.1377,4.1373,4.148,4.1534,4.1597,4.165,4.1648,4.1711,4.1705,4.1726,4.1741,4.1844,4.1875,4.1823,4.2,4.1956,4.1969,4.1976,4.1991,4.2002,4.1993,4.1792,0,0,0,0,0,4.1324,4.1392,4.145,4.1539,4.1566,4.1604,4.1644,4.1655,4.1712,4.1734,4.1775,4.1831,4.1902,4.1947,4.2015,4.2129,4.2146,4.218,4.2191,4.22,4.2212,4.2281,4.2298,4.2113,4.2113,4.2113,0,0,4.1359,4.1407,4.1448,4.1544,4.1587,4.166,4.1623,4.1699,4.1754,4.1745,4.1844,4.1877,4.1941,4.205,4.21,4.2079,4.2267,4.2211,4.2218,4.2224,4.2291,4.2309,4.2324,4.2119,4.2118,4.2117,0,0,4.1463,4.1503,4.1585,4.163,4.1696,4.1721,4.1741,4.1806,4.1828,4.1927,4.1924,4.199,4.2109,4.2157,4.2197,4.2325,4.2319,4.2346,4.2406,4.2473,4.2488,4.2501,4.2551,4.2568,4.2357,4.2357,4.2357,0,4.1499,4.1607,4.1626,4.1706,4.1751,4.1748,4.1832,4.1875,4.1959,4.1991,4.1967,4.2121,4.2163,4.2287,4.2319,4.2349,4.2376,4.2339,4.2484,4.2497,4.251,4.2558,4.2577,4.236,4.236,4.236,4.2359,0,4.1651,4.1727,4.1784,4.1869,4.192,4.2001,4.2035,4.2084,4.2092,4.2121,4.2225,4.2276,4.2357,4.2387,4.2393,4.2513,4.2499,4.2479,4.2435,4.253,4.2577,4.2595,4.2365,4.2364,4.2363,4.2362,0,0,4.1769,4.1867,4.1888,4.193,4.2005,4.2065,4.2148,4.2228,4.2272,4.2332,4.2405,4.2509,4.2493,4.2538,4.2551,4.2609,4.2714,4.2583,4.2585,4.2609,4.2855,4.2873,4.2893,4.271,4.2714,4.2716,4.2852,0,4.1883,4.2031,4.2053,4.2184,4.2257,4.2258,4.2331,4.2387,4.2417,4.2485,4.2518,4.2594,4.2564,4.2593,4.2651,4.2689,4.2764,4.2679,4.2781,4.2785,4.2769,4.2917,4.2934,4.3059,4.2869,4.2872,4.2874,0,4.2035,4.2102,4.2241,4.2313,4.2344,4.2409,4.2488,4.2551,4.2616,4.2635,4.2689,4.2696,4.2785,4.2737,4.2863,4.2805,4.2848,4.2874,4.2879,4.2892,4.2837,4.2937,4.3098,4.3119,4.2902,4.29,4.2898,0,4.2113,4.2238,4.2339,4.2373,4.2457,4.2504,4.2542,4.2604,4.2653,4.2721,4.2754,4.2832,4.2875,4.2937,4.2966,4.2927,4.3092,4.3045,4.3113,4.3113,4.3149,4.3147,4.3324,4.3172,4.3171,4.3171,4.3171,0,4.224,4.2326,4.2376,4.2438,4.2536,4.2562,4.2659,4.2695,4.2751,4.2823,4.2827,4.2894,4.2927,4.3001,4.3024,4.3128,4.3146,4.3166,4.3172,4.3168,4.3166,4.3198,4.3192,4.3176,4.3175,4.3174,4.3173,0,4.2344,4.238,4.2491,4.2563,4.2584,4.2654,4.2717,4.2779,4.281,4.2901,4.2924,4.2974,4.3061,4.3096,4.3201,4.3217,4.3339,4.3335,4.3317,4.332,4.3388,4.3383,4.3594,4.3626,4.3449,4.3451,4.3452,0,4.2423,4.249,4.2572,4.2621,4.266,4.2738,4.2789,4.2819,4.2872,4.2955,4.3008,4.3095,4.3167,4.3306,4.3353,4.3435,4.3437,4.3505,4.3449,4.3445,4.3443,4.3441,4.345,4.3516,4.3518,4.352,4.3521,0,4.2563,4.2579,4.2653,4.2735,4.2796,4.2862,4.2925,4.2965,4.3005,4.3066,4.3156,4.3212,4.3322,4.341,4.3496,4.3536,4.3538,4.3538,4.3559,4.3557,4.3546,4.3558,4.335,4.3533,4.3532,4.3531,4.3531,4.353,4.2661,4.2723,4.2791,4.2875,4.2927,4.2988,4.3052,4.3093,4.3169,4.3262,4.3274,4.3372,4.3441,4.3557,4.3602,4.368,4.3663,4.3692,4.37,4.3708,4.3715,4.3531,4.3695,4.3695,4.3695,4.3694,4.3694,0,4.2804,4.285,4.2926,4.3018,4.3085,4.308,4.3152,4.3209,4.3295,4.3359,4.3431,4.3538,4.3625,4.368,4.3768,4.3821,4.3824,4.3844,4.3842,4.3852,4.3723,4.3698,4.384,4.384,4.384,4.384,4.384,4.384,4.2887,4.2994,4.3019,4.3153,4.3198,4.3295,4.3338,4.3395,4.3448,4.3567,4.364,4.3675,4.3738,4.3832,4.3913,4.3927,4.3962,4.3983,4.3997,4.3876,4.3861,4.3846,4.3823,4.399,4.399,4.4121,4.4122,4.4123]},{"header":{"parameterUnit":"m.s-1","parameterCategory":1,"la1":30.2991,"la2":30.254,"lo1":-89.0895,"lo2":-89.0444,"dx":0.0017,"dy":0.0017,"nx":28,"ny":28,"refTime":"2023-01-02T15:00:00:Z","depth":0,"parameterNumber":3,"parameterNumberName":"V-component_of_WINDS"},"data":[0,0,0,0,0,0,0,0,0,0,0,0,0,0,0,0,0,0,0,0,0,0,0,0,0,0,0,0,0,0,0,0,0,0,0,0,0,0,0,0,0,0,0,0,0,0,0,0,0,0,0,0,0,0,0,0,0,0,-1.6713,-1.6711,0,-1.6548,-1.6546,-1.6544,-1.6493,-1.6494,-1.6494,-1.6495,-1.631,-1.6304,-1.6299,0,0,0,0,0,0,0,0,0,0,0,0,0,-1.6967,-1.6963,-1.6713,-1.6711,-1.6709,-1.6549,-1.6546,-1.6544,-1.6493,-1.6494,-1.6495,-1.6496,-1.6312,-1.6305,-1.6298,0,0,0,0,0,0,0,0,0,0,0,0,0,-1.6835,-1.6962,-1.6713,-1.6664,-1.6658,-1.6549,-1.6546,-1.6543,-1.6492,-1.6494,-1.6495,-1.6496,-1.6314,-1.6306,-1.6297,-1.6219,0,0,-1.6271,-1.6267,0,0,0,0,0,0,0,0,-1.6842,-1.6825,-1.6674,-1.6668,-1.6661,-1.6543,-1.6568,-1.6434,-1.6492,-1.6555,-1.6495,-1.6497,-1.6385,-1.6371,-1.6337,-1.6211,-1.6203,-1.627,-1.6265,-1.6261,-1.6259,0,0,0,0,0,0,0,-1.6852,-1.6832,-1.6647,-1.6671,-1.6664,-1.6645,-1.6628,-1.6542,-1.6464,-1.655,-1.6546,-1.6528,-1.6382,-1.6345,-1.6332,-1.62,-1.627,-1.6263,-1.6257,-1.6254,-1.6,-1.5999,0,0,0,0,0,0,-1.6871,-1.684,-1.6653,-1.6642,-1.6757,-1.664,-1.662,-1.6579,-1.6465,-1.645,-1.6527,-1.6526,-1.6359,-1.6342,-1.6325,-1.6226,-1.6261,-1.6253,-1.6248,-1.6002,-1.6,-1.5998,0,0,0,0,0,0,-1.6877,-1.6855,-1.6659,-1.674,-1.6714,-1.6634,-1.6588,-1.6575,-1.6539,-1.6448,-1.6433,-1.6505,-1.6359,-1.6337,-1.6247,-1.6219,-1.6249,-1.6242,-1.6004,-1.6001,-1.5999,-1.6029,0,0,0,0,0,0,-1.6885,-1.6858,-1.6831,-1.674,-1.671,-1.6589,-1.6587,-1.6571,-1.6526,-1.6523,-1.6423,-1.6408,-1.6359,-1.626,-1.6238,-1.6208,-1.6235,-1.6006,-1.6002,-1.6,-1.603,-1.6028,-1.6026,0,0,0,0,0,-1.6894,-1.6842,-1.683,-1.6808,-1.6676,-1.6587,-1.6569,-1.6519,-1.6524,-1.6494,-1.6436,-1.6411,-1.6226,-1.6251,-1.6226,-1.6193,-1.6007,-1.6003,-1.6,-1.6031,-1.6028,-1.6026,0,0,0,0,0,0,-1.6926,-1.683,-1.6815,-1.6733,-1.667,-1.6579,-1.654,-1.6517,-1.6446,-1.6446,-1.6381,-1.6358,-1.6273,-1.6223,-1.6253,-1.6111,-1.6115,-1.6106,-1.6147,-1.6143,-1.6142,-1.6155,-1.6228,0,0,0,0,0,-1.6925,-1.6866,-1.6783,-1.6718,-1.6688,-1.662,-1.6579,-1.6546,-1.6475,-1.6446,-1.6381,-1.6309,-1.6234,-1.6186,-1.6112,-1.6022,-1.5998,-1.5987,-1.5985,-1.5984,-1.5976,-1.5924,-1.5917,-1.5986,-1.5986,-1.5986,0,0,-1.6919,-1.6859,-1.6825,-1.6724,-1.667,-1.6607,-1.6597,-1.653,-1.648,-1.6434,-1.6347,-1.6296,-1.621,-1.6121,-1.6077,-1.6076,-1.5952,-1.5979,-1.5979,-1.5972,-1.5919,-1.5913,-1.5907,-1.5984,-1.5984,-1.5985,0,0,-1.6876,-1.6827,-1.6768,-1.6716,-1.6638,-1.6593,-1.6579,-1.6492,-1.6459,-1.6371,-1.6335,-1.6272,-1.6146,-1.6086,-1.6039,-1.5976,-1.5949,-1.5953,-1.5941,-1.5891,-1.5886,-1.5881,-1.5857,-1.5849,-1.5946,-1.5946,-1.5946,0,-1.6878,-1.6786,-1.6739,-1.6675,-1.663,-1.6591,-1.6529,-1.6478,-1.6378,-1.6345,-1.6347,-1.6188,-1.6127,-1.6023,-1.6008,-1.5971,-1.595,-1.5964,-1.5892,-1.5886,-1.588,-1.5856,-1.5848,-1.5947,-1.5947,-1.5947,-1.5947,0,-1.6791,-1.6727,-1.6688,-1.6599,-1.6549,-1.6486,-1.6425,-1.6379,-1.6351,-1.6304,-1.6214,-1.614,-1.6051,-1.6023,-1.5992,-1.5913,-1.5916,-1.5905,-1.5908,-1.5875,-1.5852,-1.5843,-1.5948,-1.5948,-1.5948,-1.5947,0,0,-1.6763,-1.6651,-1.6637,-1.6596,-1.6507,-1.6454,-1.6387,-1.6306,-1.6268,-1.6199,-1.6139,-1.6033,-1.6024,-1.5971,-1.5932,-1.5888,-1.5841,-1.5882,-1.5879,-1.5877,-1.5748,-1.5756,-1.5747,-1.5824,-1.5822,-1.582,-1.5755,0,-1.6709,-1.6595,-1.6551,-1.6456,-1.6395,-1.6357,-1.6298,-1.6235,-1.6189,-1.6127,-1.6073,-1.6,-1.5994,-1.5962,-1.5917,-1.5857,-1.5814,-1.5861,-1.5763,-1.576,-1.5786,-1.5735,-1.5743,-1.5685,-1.5746,-1.5744,-1.5743,0,-1.663,-1.6568,-1.6469,-1.6388,-1.6361,-1.631,-1.6231,-1.6174,-1.6099,-1.6068,-1.6011,-1.5975,-1.5899,-1.5908,-1.5799,-1.5832,-1.5789,-1.5753,-1.575,-1.5738,-1.5749,-1.572,-1.5666,-1.5657,-1.5728,-1.5729,-1.573,0,-1.6619,-1.6509,-1.6436,-1.6402,-1.6306,-1.6271,-1.6228,-1.6156,-1.611,-1.6039,-1.6008,-1.5927,-1.5882,-1.5818,-1.576,-1.5772,-1.5657,-1.5661,-1.5626,-1.5627,-1.5602,-1.5605,-1.5539,-1.5576,-1.5576,-1.5576,-1.5577,0,-1.6563,-1.6503,-1.643,-1.6385,-1.6316,-1.6264,-1.6195,-1.6148,-1.6084,-1.6026,-1.5985,-1.593,-1.5857,-1.5791,-1.5744,-1.5661,-1.564,-1.5611,-1.5599,-1.5614,-1.5618,-1.5584,-1.5586,-1.5574,-1.5574,-1.5575,-1.5575,0,-1.6539,-1.6488,-1.6405,-1.6323,-1.6301,-1.6254,-1.618,-1.6132,-1.6086,-1.6012,-1.5991,-1.5916,-1.5836,-1.5773,-1.5666,-1.5635,-1.5547,-1.5533,-1.5574,-1.5568,-1.5537,-1.554,-1.5447,-1.5431,-1.5479,-1.5479,-1.5479,0,-1.6506,-1.6461,-1.6375,-1.6336,-1.6296,-1.6232,-1.6187,-1.6133,-1.6086,-1.5998,-1.5959,-1.5878,-1.581,-1.5683,-1.5616,-1.5534,-1.5517,-1.549,-1.5504,-1.5522,-1.5516,-1.552,-1.5514,-1.5488,-1.5488,-1.5488,-1.5488,0,-1.6453,-1.6431,-1.6371,-1.6301,-1.6249,-1.619,-1.6129,-1.6097,-1.6031,-1.5979,-1.5901,-1.5849,-1.5743,-1.5661,-1.5573,-1.5522,-1.5492,-1.5485,-1.5472,-1.5487,-1.5512,-1.5498,-1.5569,-1.5486,-1.5487,-1.5487,-1.5487,-1.5487,-1.6423,-1.6381,-1.6316,-1.6248,-1.6198,-1.6143,-1.6095,-1.6044,-1.598,-1.5894,-1.5864,-1.5782,-1.5706,-1.5586,-1.5535,-1.5467,-1.5464,-1.5446,-1.5441,-1.5438,-1.5439,-1.5525,-1.545,-1.545,-1.545,-1.545,-1.545,0,-1.6368,-1.6325,-1.6264,-1.6184,-1.613,-1.6114,-1.6045,-1.6,-1.5931,-1.5866,-1.5802,-1.571,-1.5631,-1.5559,-1.5475,-1.5434,-1.5418,-1.5413,-1.5415,-1.5404,-1.5447,-1.5466,-1.5428,-1.5428,-1.5428,-1.5428,-1.5428,-1.5428,-1.6333,-1.6261,-1.6231,-1.6132,-1.6087,-1.6013,-1.5975,-1.5922,-1.587,-1.5772,-1.5709,-1.5664,-1.5594,-1.5506,-1.5431,-1.5411,-1.5381,-1.538,-1.5357,-1.5398,-1.5401,-1.5404,-1.5421,-1.5375,-1.5374,-1.5319,-1.5319,-1.5318]}]]